Tracking 20066 objects as of 6-Dec-2019
HD Live streaming from Space Station
objects crossing your sky now

OPS 5960 DEB

Track OPS 5960 DEB now!


NORAD ID: 43000
Int'l Code: 1970-093D
Perigee: 25,596.4 km
Apogee: 36,255.4 km
Inclination: 9.9 °
Period: 1,194.7 minutes
Semi major axis: 37296 km
RCS: Unknown
Launch date: November 6, 1970
Source: United States (US)
Launch site: AIR FORCE EASTERN TEST RANGE (AFETR)

Note: This is SATELLITE DEBRIS
aabbcc
Your satellite tracking list
Your tracking list is empty




NASA's NSSDC Master Catalog

Two Line Element Set (TLE):
1 43000U 70093D   18294.62865935 -.00000106 +00000-0 +00000-0 0  9992
2 43000 009.9333 092.8104 1428932 148.7221 220.5855 01.20529529010861
Source of the keplerian elements: AFSPC